Location: Stake Lake Observatory
(50.5113°N, 120.4813°W)
Time: 16:59:05
(UTC-07:00)

Envisat - Pass Details

Date: 24 May 2022
Orbit: 764 x 765 km, 98.2° (Epoch: 28 June)

Event Time Altitude Azimuth Distance (km) Brightness Sun altitude
Rises 04:03:13 0° 32° (NNE) 3,241 8.3 -7.9°
Reaches altitude 10° 04:07:27 10° 66° (ENE) 2,306 6.8 -7.5°
Maximum altitude 04:09:00 11° 84° (E) 2,214 6.2 -7.3°
Drops below altitude 10° 04:10:33 10° 102° (ESE) 2,301 6.0 -7.1°
Sets 04:14:44 0° 136° (SE) 3,218 6.2 -6.7°
